Home > Weather > Khan Yunis > Past weeks

Flag for Palestinian Territories Weather for the Past 2 Weeks in Khan Yunis, Gaza Strip, Palestinian Territories

Now
63 °F

Sunny.


Feels Like: 63 °F
Forecast: 55 / 59 °F
Wind: 12 mph from West

Location: El Arish

Current Time: Feb 6, 2016 at 11:45:06 AM

Latest Report: Feb 6, 2016 at 10:00 AM


Visibility: 10 mi

Pressure: 30.04 "Hg

Humidity: 56%

Dew point: 46 °F

Location of Khan YunisLocation

Historic Weather in Khan Yunis — Graph

°F

Khan Yunis Temperature Yesterday

Maximum temperature yesterday: 79 °F (at 12:00 PM)
Minimum temperature yesterday: 45 °F (at 4:00 AM)
Average temperature yesterday: 59 °F

High & Low Weather Summary for the Past Weeks

 TemperatureHumidityPressure
High79 °F (Feb 4, 3:00 PM)100% (Jan 22, 7:00 PM)30.45 "Hg (Jan 22, 7:00 PM)
Low36 °F (Jan 28, 6:00 AM)21% (Feb 4, 3:00 PM)29.95 "Hg (Feb 5, 6:00 AM)
Average53 °F86%30.19 "Hg
* Reported Jan 22 10:00 AM — Feb 6 10:00 AM, Khan Yunis, Weather by CustomWeather, © 2016

Note: Actual official high and low records may vary slightly from our data, if they occured in-between our weather recording intervals... More about our weather records

Advertising

Khan Yunis Weather History for the Previous 24 Hours

 ConditionsComfort  
Time TempWeatherWind HumidityBarometerVisibility
10:00 AM
Sat, Feb 6
63 °FSunny.12 mph56%30.04 "Hg10 mi
8:00 AM57 °FClear.8 mph88%30.04 "Hg5 mi
7:00 AM55 °FFog.7 mph94%30.04 "Hg3 mi
6:00 AM55 °FFog.7 mph100%30.04 "Hg2 mi
5:00 AM57 °FPassing clouds.17 mph82%30.01 "HgN/A
3:00 AM50 °FClear.3 mph100%30.01 "Hg10 mi
2:00 AM48 °FClear.2 mph100%30.04 "Hg10 mi
1:00 AM50 °FClear.5 mph100%30.04 "Hg10 mi
12:00 AM52 °FClear.5 mph100%30.04 "Hg10 mi
11:00 PM
Fri, Feb 5
54 °FClear.5 mph100%30.07 "Hg10 mi
10:00 PM55 °FClear.1 mph94%30.07 "Hg10 mi
9:00 PM57 °FClear.No wind82%30.07 "Hg10 mi
8:00 PM57 °FClear.1 mph77%30.04 "Hg4 mi
7:00 PM59 °FClear.No wind77%30.01 "Hg4 mi
6:00 PM61 °FPassing clouds.6 mph72%30.01 "Hg2 mi
5:00 PM64 °FSandstorm.13 mph56%29.98 "Hg2 mi
4:00 PM64 °FSandstorm.15 mph60%29.95 "Hg2 mi
3:00 PM68 °FClear.16 mph56%29.95 "Hg4 mi
2:00 PM72 °FSunny.9 mph47%29.95 "Hg10 mi
1:00 PM73 °FSunny.9 mph31%29.95 "Hg10 mi
12:00 PM79 °FSunny.No wind21%29.95 "Hg10 mi
11:00 AM77 °FSunny.No wind21%29.98 "Hg10 mi
Weather by CustomWeather, © 2016

See weather overviewHow to use our weather pages